User: anonymous   Login
Location: Newark
(39.6889°N, 28.1522°E)
Time: 02:11:56
(UTC+00:00)
Language:

XW-2C - Orbit

View from above orbital plane
View from above orbital plane
View from above satellite
View from above satellite

Ground track
Ground track

The orbit data is extracted from the following two-line orbital elements,

1 40906U 15049H   19349.77390939  .00000359  00000-0  22247-4 0  9999
2 40906  97.4720 348.9355 0013403 298.8726 234.3838 15.15858546234277
Epoch (UTC): 15 December 2019 18:34:25
Eccentricity: 0.0013403
inclination: 97.4720°
perigee height: 509 km
apogee height: 527 km
right ascension of ascending node: 348.9355°
argument of perigee: 298.8726°
revolutions per day: 15.15858546
mean anomaly at epoch: 234.3838°
orbit number at epoch: 23427

The dashed part of the orbit path shows where the satellite is in the earth's shadow,  

DLR